EZY573H EGAA-EGPH

Flight info

Callsign EZY573H
Flight time 0h 32m
Altitude 21000
Route BLACA P600 TUNSO
Aircraft A320/M-SDE3FGHIRWY/LB1

Departure

Time 2026-04-20 23:30
Airport Belfast International Airport (EGAA)

Arrival

Time 2026-04-21 00:02
Airport Edinburgh Airport (EGPH)
Time Latitude Longitude Altitude Speed Heading
2026-04-20 23:00 54.66082 -6.21649 272 ft 0 kts 335°
2026-04-20 23:21 54.66068 -6.21638 272 ft 4 kts 335°
2026-04-20 23:22 54.66044 -6.21619 274 ft 4 kts 335°
2026-04-20 23:22 54.66019 -6.21599 275 ft 4 kts 335°
2026-04-20 23:22 54.65995 -6.21579 274 ft 4 kts 333°
2026-04-20 23:22 54.65971 -6.21558 276 ft 4 kts 330°
2026-04-20 23:23 54.65956 -6.21542 277 ft 1 kts 329°
2026-04-20 23:23 54.65954 -6.21540 272 ft 0 kts 329°
2026-04-20 23:25 54.65958 -6.21573 272 ft 10 kts 258°
2026-04-20 23:25 54.65906 -6.21675 272 ft 12 kts 238°
2026-04-20 23:26 54.65853 -6.21863 272 ft 20 kts 245°
2026-04-20 23:26 54.65795 -6.22086 272 ft 21 kts 246°
2026-04-20 23:26 54.65762 -6.22340 272 ft 23 kts 263°
2026-04-20 23:26 54.65741 -6.22638 272 ft 26 kts 263°
2026-04-20 23:27 54.65686 -6.22949 272 ft 29 kts 235°
2026-04-20 23:27 54.65563 -6.23236 272 ft 29 kts 233°
2026-04-20 23:27 54.65432 -6.23385 275 ft 10 kts 202°
2026-04-20 23:27 54.65425 -6.23390 273 ft 0 kts 202°
2026-04-20 23:28 54.65415 -6.23397 272 ft 7 kts 202°
2026-04-20 23:28 54.65327 -6.23371 272 ft 17 kts 154°
2026-04-20 23:28 54.65306 -6.23229 277 ft 0 kts 63°
2026-04-20 23:29 54.65310 -6.23214 274 ft 8 kts 63°
2026-04-20 23:29 54.65450 -6.22700 272 ft 85 kts 65°
2026-04-20 23:29 54.65787 -6.21440 276 ft 143 kts 65°
2026-04-20 23:30 54.66207 -6.19865 917 ft 143 kts 66°
2026-04-20 23:30 54.66635 -6.18317 1672 ft 147 kts 69°
2026-04-20 23:30 54.67053 -6.16574 2133 ft 168 kts 73°
2026-04-20 23:30 54.67486 -6.14553 2521 ft 191 kts 73°
2026-04-20 23:31 54.67964 -6.12295 2962 ft 210 kts 73°
2026-04-20 23:31 54.68490 -6.09814 3548 ft 229 kts 72°
2026-04-20 23:31 54.69065 -6.07125 4182 ft 245 kts 72°
2026-04-20 23:31 54.69668 -6.04322 5099 ft 251 kts 71°
2026-04-20 23:32 54.70283 -6.01462 6043 ft 256 kts 71°
2026-04-20 23:32 54.70907 -5.98557 6962 ft 261 kts 71°
2026-04-20 23:32 54.71534 -5.95631 7840 ft 265 kts 71°
2026-04-20 23:32 54.72189 -5.92588 8767 ft 268 kts 71°
2026-04-20 23:33 54.72836 -5.89579 9690 ft 272 kts 71°
2026-04-20 23:33 54.73496 -5.86494 10613 ft 277 kts 71°
2026-04-20 23:33 54.74191 -5.83230 10994 ft 301 kts 71°
2026-04-20 23:33 54.74943 -5.79691 11319 ft 325 kts 71°
2026-04-20 23:34 54.75739 -5.75956 11921 ft 336 kts 71°
2026-04-20 23:34 54.76556 -5.72125 12707 ft 341 kts 71°
2026-04-20 23:34 54.77386 -5.68236 13495 ft 346 kts 71°
2026-04-20 23:34 54.78221 -5.64309 14269 ft 351 kts 71°
2026-04-20 23:35 54.79067 -5.60318 14955 ft 355 kts 71°
2026-04-20 23:35 54.80775 -5.52197 16286 ft 363 kts 72°
2026-04-20 23:35 54.81638 -5.48066 16926 ft 367 kts 72°
2026-04-20 23:36 54.82513 -5.43876 17561 ft 371 kts 72°
2026-04-20 23:36 54.83095 -5.41091 17965 ft 373 kts 72°
2026-04-20 23:36 54.83987 -5.36821 18614 ft 377 kts 72°
2026-04-20 23:36 54.84882 -5.32524 19142 ft 381 kts 72°
2026-04-20 23:37 54.85784 -5.28185 19665 ft 384 kts 72°
2026-04-20 23:37 54.86750 -5.23832 20157 ft 389 kts 67°
2026-04-20 23:37 54.88103 -5.19727 20364 ft 394 kts 56°
2026-04-20 23:37 54.89911 -5.16025 20397 ft 410 kts 46°
2026-04-20 23:38 54.92134 -5.12874 20399 ft 414 kts 36°
2026-04-20 23:38 54.94652 -5.10431 20399 ft 416 kts 28°
2026-04-20 23:38 54.97238 -5.08206 20293 ft 410 kts 28°
2026-04-20 23:38 54.99777 -5.06014 19745 ft 405 kts 28°
2026-04-20 23:39 55.02284 -5.03839 19229 ft 400 kts 28°
2026-04-20 23:39 55.04756 -5.01692 18721 ft 395 kts 28°
2026-04-20 23:39 55.07197 -4.99541 18166 ft 389 kts 32°
2026-04-20 23:39 55.09385 -4.96874 17657 ft 380 kts 43°
2026-04-20 23:40 55.11201 -4.93586 17205 ft 373 kts 54°
2026-04-20 23:40 55.12622 -4.89825 17031 ft 370 kts 64°
2026-04-20 23:40 55.13697 -4.85763 16790 ft 368 kts 69°
2026-04-20 23:40 55.14719 -4.81670 16532 ft 366 kts 69°
2026-04-20 23:41 55.15734 -4.77602 16289 ft 365 kts 69°
2026-04-20 23:41 55.16747 -4.73544 16042 ft 363 kts 69°
2026-04-20 23:41 55.17752 -4.69507 15786 ft 361 kts 69°
2026-04-20 23:41 55.18744 -4.65493 15556 ft 358 kts 69°
2026-04-20 23:42 55.19726 -4.61503 15320 ft 356 kts 69°
2026-04-20 23:42 55.20704 -4.57523 15077 ft 355 kts 69°
2026-04-20 23:42 55.21664 -4.53612 14841 ft 354 kts 69°
2026-04-20 23:42 55.22633 -4.49662 14601 ft 353 kts 69°
2026-04-20 23:43 55.23598 -4.45719 14358 ft 351 kts 69°
2026-04-20 23:43 55.24555 -4.41799 14115 ft 350 kts 69°
2026-04-20 23:43 55.25508 -4.37878 13876 ft 348 kts 69°
2026-04-20 23:43 55.26456 -4.33973 13638 ft 347 kts 69°
2026-04-20 23:44 55.27402 -4.30082 13404 ft 346 kts 69°
2026-04-20 23:44 55.28344 -4.26211 13169 ft 345 kts 69°
2026-04-20 23:44 55.29285 -4.22333 12930 ft 344 kts 69°
2026-04-20 23:44 55.30220 -4.18468 12708 ft 343 kts 69°
2026-04-20 23:45 55.31150 -4.14612 12464 ft 342 kts 69°
2026-04-20 23:45 55.32073 -4.10770 12243 ft 341 kts 69°
2026-04-20 23:45 55.32994 -4.06927 12008 ft 340 kts 69°
2026-04-20 23:45 55.33897 -4.03147 11783 ft 339 kts 68°
2026-04-20 23:46 55.34809 -3.99337 11556 ft 338 kts 68°
2026-04-20 23:46 55.35721 -3.95531 11329 ft 337 kts 68°
2026-04-20 23:46 55.36611 -3.91806 11158 ft 323 kts 68°
2026-04-20 23:46 55.37462 -3.88237 11027 ft 310 kts 68°
2026-04-20 23:47 55.38277 -3.84815 10901 ft 297 kts 69°
2026-04-20 23:47 55.39059 -3.81529 10763 ft 285 kts 69°
2026-04-20 23:47 55.39811 -3.78364 10601 ft 277 kts 69°
2026-04-20 23:47 55.40546 -3.75269 10473 ft 272 kts 69°
2026-04-20 23:48 55.41272 -3.72199 10392 ft 272 kts 69°
2026-04-20 23:48 55.41996 -3.69130 10209 ft 271 kts 69°
2026-04-20 23:48 55.42717 -3.66069 10018 ft 270 kts 69°
2026-04-20 23:48 55.43433 -3.63023 9837 ft 269 kts 69°
2026-04-20 23:49 55.44142 -3.60009 9648 ft 269 kts 69°
2026-04-20 23:49 55.44854 -3.56966 9467 ft 268 kts 69°
2026-04-20 23:49 55.45565 -3.53928 9282 ft 268 kts 69°
2026-04-20 23:49 55.46273 -3.50895 9111 ft 267 kts 69°
2026-04-20 23:50 55.46980 -3.47864 8924 ft 267 kts 69°
2026-04-20 23:50 55.47695 -3.44842 8744 ft 267 kts 66°
2026-04-20 23:50 55.48786 -3.42222 8552 ft 269 kts 43°
2026-04-20 23:50 55.50415 -3.40584 8376 ft 274 kts 19°
2026-04-20 23:51 55.52315 -3.40277 8167 ft 279 kts 354°
2026-04-20 23:51 55.54144 -3.41434 7972 ft 283 kts 329°
2026-04-20 23:51 55.55702 -3.43567 7762 ft 283 kts 322°
2026-04-20 23:51 55.57200 -3.45736 7606 ft 272 kts 322°
2026-04-20 23:52 55.58631 -3.47823 7464 ft 261 kts 322°
2026-04-20 23:52 55.60014 -3.49848 7259 ft 255 kts 322°
2026-04-20 23:52 55.61376 -3.51840 7107 ft 253 kts 322°
2026-04-20 23:52 55.62733 -3.53816 6990 ft 252 kts 322°
2026-04-20 23:53 55.64075 -3.55766 6729 ft 255 kts 322°
2026-04-20 23:53 55.65431 -3.57838 6264 ft 257 kts 320°
2026-04-20 23:53 55.66742 -3.59948 6038 ft 251 kts 319°
2026-04-20 23:53 55.68018 -3.62028 5863 ft 248 kts 319°
2026-04-20 23:54 55.69288 -3.64088 5680 ft 247 kts 320°
2026-04-20 23:54 55.70590 -3.66065 5533 ft 246 kts 322°
2026-04-20 23:54 55.71915 -3.67993 5367 ft 246 kts 323°
2026-04-20 23:54 55.73241 -3.69898 5195 ft 245 kts 324°
2026-04-20 23:55 55.74560 -3.71792 5037 ft 239 kts 324°
2026-04-20 23:55 55.75814 -3.73651 4869 ft 231 kts 321°
2026-04-20 23:55 55.77059 -3.75277 4725 ft 219 kts 338°
2026-04-20 23:55 55.78474 -3.76083 4650 ft 210 kts 357°
2026-04-20 23:56 55.79914 -3.76057 4584 ft 205 kts 15°
2026-04-20 23:56 55.81248 -3.75268 4431 ft 200 kts 32°
2026-04-20 23:56 55.82354 -3.73824 4285 ft 196 kts 49°
2026-04-20 23:56 55.83152 -3.71903 4163 ft 190 kts 61°
2026-04-20 23:57 55.83833 -3.69925 4076 ft 186 kts 60°
2026-04-20 23:57 55.84504 -3.67980 3976 ft 184 kts 60°
2026-04-20 23:57 55.85170 -3.66043 3765 ft 183 kts 60°
2026-04-20 23:57 55.85835 -3.64104 3539 ft 183 kts 60°
2026-04-20 23:58 55.86490 -3.62195 3300 ft 177 kts 60°
2026-04-20 23:58 55.87122 -3.60353 3045 ft 172 kts 61°
2026-04-20 23:58 55.87736 -3.58561 2817 ft 168 kts 61°
2026-04-20 23:58 55.88337 -3.56804 2570 ft 164 kts 61°
2026-04-20 23:59 55.88913 -3.55123 2363 ft 152 kts 61°
2026-04-20 23:59 55.89447 -3.53559 2154 ft 146 kts 61°
2026-04-20 23:59 55.89958 -3.52062 1944 ft 139 kts 61°
2026-04-20 23:59 55.90440 -3.50650 1779 ft 129 kts 61°
2026-04-21 00:00 55.90899 -3.49309 1562 ft 125 kts 61°
2026-04-21 00:00 55.91348 -3.47993 1363 ft 124 kts 60°
2026-04-21 00:00 55.91803 -3.46657 1145 ft 127 kts 59°
2026-04-21 00:00 55.92259 -3.45304 937 ft 128 kts 60°
2026-04-21 00:01 55.92725 -3.43941 773 ft 128 kts 59°
2026-04-21 00:01 55.93187 -3.42579 592 ft 131 kts 61°
2026-04-21 00:01 55.93655 -3.41200 410 ft 130 kts 61°
2026-04-21 00:01 55.94128 -3.39818 270 ft 131 kts 60°
2026-04-21 00:02 55.94596 -3.38437 148 ft 128 kts 60°
2026-04-21 00:02 55.95030 -3.37168 112 ft 102 kts 60°
2026-04-21 00:02 55.95303 -3.36355 111 ft 52 kts 59°
2026-04-21 00:02 55.95463 -3.35880 111 ft 40 kts 59°
2026-04-21 00:03 55.95554 -3.35531 113 ft 25 kts 101°
2026-04-21 00:03 55.95430 -3.35362 115 ft 21 kts 159°
2026-04-21 00:03 55.95362 -3.35541 116 ft 26 kts 262°
2026-04-21 00:03 55.95281 -3.35834 113 ft 27 kts 239°
2026-04-21 00:04 55.95182 -3.36137 115 ft 29 kts 240°
2026-04-21 00:04 55.95081 -3.36385 116 ft 20 kts 194°
2026-04-21 00:04 55.95009 -3.36285 114 ft 8 kts 115°
2026-04-21 00:04 55.94997 -3.36242 113 ft 0 kts 117°
2026-04-21 00:05 55.94996 -3.36238 113 ft 0 kts 117°
2026-04-21 00:05 55.94996 -3.36236 113 ft 0 kts 117°